Wind_Speed
13 13 15 16 16 16 16 18 19 19 18 18 18 18 18 18 19 21 23 26 27 25 24 24 26 27 26 24 24 24 24 23 21 22 23 24 25 25 26 27 27 28 29 29 29 29 30 33 37 40 43 44 45 45 44 44 44 44 42 41 42 41 40 40 39 37 36 37 38 38 37 35 33 33
13 14 14 15 16 16 17 18 19 20 20 19 19 19 19 19 20 21 24 28 29 27 25 24 26 28 28 27 27 26 25 24 23 23 25 26 28 28 28 29 30 31 31 32 32 32 31 32 35 38 41 44 46 46 46 46 45 45 44 43 43 43 42 41 41 39 38 38 39 39 39 37 35 34
15 15 15 16 16 16 16 17 19 20 20 20 20 20 20 21 22 22 24 29 32 31 28 27 26 27 29 29 30 29 27 25 24 24 26 28 29 30 30 30 31 32 33 34 34 34 33 33 33 36 39 43 45 47 47 47 47 46 45 44 44 44 43 42 42 41 40 40 40 40 40 39 37 36
16 16 16 17 16 16 16 17 18 19 20 20 20 21 21 22 22 23 25 30 34 34 32 30 28 27 28 30 31 31 30 27 26 26 27 29 30 31 32 32 33 35 36 36 35 34 34 33 33 35 37 40 44 46 47 47 48 48 46 45 45 45 44 44 43 43 42 42 41 41 40 40 39 37
15 16 17 17 16 15 16 16 17 18 19 19 20 22 23 23 23 24 26 30 33 35 34 33 30 28 29 30 31 32 31 30 28 27 28 30 31 33 35 37 38 38 39 39 37 35 33 33 33 34 35 38 41 45 47 48 48 48 48 47 46 46 46 46 45 45 44 44 43 41 41 40 39 38
15 16 16 15 13 13 14 15 16 18 18 19 21 22 24 25 25 25 27 29 32 35 35 33 32 29 29 31 31 30 31 30 29 28 29 31 32 34 38 41 43 44 43 42 39 36 34 33 32 33 35 36 39 43 46 48 48 48 49 49 48 47 47 47 47 46 46 46 45 43 41 40 40 39
15 14 14 13 13 14 16 17 17 18 18 19 21 23 24 25 25 25 27 30 31 33 33 32 32 31 29 30 30 30 31 31 29 30 31 32 34 37 41 44 47 48 47 46 42 38 36 34 33 33 34 36 37 40 44 47 48 48 48 49 49 48 48 48 47 46 47 48 47 45 43 42 41 40
13 12 13 14 15 17 19 20 19 19 18 18 20 22 23 24 24 24 26 29 29 30 31 31 32 32 30 30 31 31 32 31 30 30 31 32 36 40 43 46 49 50 50 49 46 41 38 36 35 33 34 36 37 39 42 45 47 48 48 49 50 50 49 49 48 47 47 48 48 46 44 43 42 41
13 13 15 17 18 20 21 22 21 20 20 19 19 20 21 22 22 23 24 26 27 28 30 31 32 32 31 31 31 30 31 31 31 31 32 34 38 42 45 48 49 51 51 50 48 44 40 37 36 34 34 36 37 39 41 44 46 48 48 48 49 51 50 50 49 48 48 48 48 48 46 44 43 42
15 16 19 20 20 20 22 22 22 22 21 20 20 21 21 21 22 23 24 25 26 27 28 29 31 31 30 30 30 29 29 30 31 32 33 36 39 42 46 49 50 51 51 50 49 46 43 40 37 35 34 35 37 39 41 43 46 47 48 47 48 50 51 51 50 49 49 48 48 48 47 45 44 42
18 19 21 22 21 21 21 22 23 22 22 23 22 22 22 22 23 24 25 25 26 27 27 28 29 29 29 30 30 30 28 28 29 31 34 37 40 42 45 47 50 51 51 51 50 47 45 44 40 37 34 34 36 38 40 43 45 46 48 48 48 49 50 51 50 49 49 49 47 47 47 46 44 42
20 21 23 23 23 22 22 23 23 24 24 24 24 23 23 23 24 25 26 26 26 27 26 26 27 28 29 31 31 31 29 28 29 30 33 37 41 42 44 46 49 50 51 52 52 49 47 47 45 42 38 34 33 35 38 42 45 46 47 48 48 48 49 51 50 49 49 49 48 46 47 46 45 43
21 22 23 24 24 24 24 24 24 25 24 23 23 23 23 24 26 27 27 27 27 26 25 25 26 27 30 31 32 32 31 30 30 31 33 38 41 43 46 48 47 48 50 52 54 53 50 49 48 48 45 39 34 34 36 39 43 45 46 47 47 48 49 50 50 49 48 49 48 47 46 45 44 43
22 23 24 24 25 25 25 25 24 24 23 22 22 22 23 25 26 27 27 27 26 25 25 25 25 27 30 32 32 33 32 31 33 34 35 39 43 45 48 51 50 48 50 54 57 58 54 49 47 49 48 44 39 36 35 37 40 43 45 46 47 47 48 49 50 49 48 48 48 48 46 44 43 42
23 24 24 24 26 27 26 25 23 23 22 22 23 23 24 25 27 27 27 26 25 24 25 26 25 27 31 33 32 32 31 31 33 36 38 41 43 45 48 54 56 52 51 55 59 61 56 48 46 47 48 47 43 38 35 34 37 41 43 45 46 47 48 48 49 48 47 47 48 48 47 44 43 42
24 24 25 25 26 27 27 24 22 22 22 22 23 24 25 26 27 27 26 25 24 24 25 25 26 28 31 32 32 30 30 32 35 37 40 41 43 46 49 54 58 55 53 55 60 63 59 50 46 47 47 46 44 39 33 32 35 39 41 43 45 46 47 47 48 48 47 46 47 48 48 46 44 43
26 25 25 25 25 27 26 24 22 22 22 21 23 24 25 26 27 27 26 25 24 23 23 25 27 29 30 31 32 32 31 33 36 39 41 41 43 48 50 51 55 55 53 53 57 62 59 50 47 48 47 44 43 40 34 30 32 36 38 40 43 44 46 47 47 47 47 46 46 48 49 48 47 45
27 25 25 25 25 27 27 23 21 21 21 21 23 25 26 26 27 27 26 24 25 24 23 25 28 30 31 32 32 33 33 35 39 41 42 43 44 47 48 50 54 55 53 50 50 56 57 50 47 49 48 43 41 40 35 29 30 34 35 37 40 43 44 46 46 46 46 45 44 45 48 49 49 47
26 25 25 25 26 27 26 22 19 20 21 22 24 26 26 26 27 27 27 25 26 26 26 28 31 32 33 33 33 34 34 35 37 39 40 42 43 44 45 49 54 56 53 47 44 51 55 49 45 48 47 43 40 39 35 29 29 34 35 35 37 40 42 44 45 45 45 44 43 43 45 47 48 48
26 25 25 26 26 26 25 22 21 21 22 24 25 26 26 26 27 28 28 27 27 27 28 30 32 33 34 34 34 33 30 30 33 37 39 40 40 40 42 48 55 58 55 49 43 48 53 49 45 47 46 42 38 37 35 30 28 32 34 33 35 38 40 43 44 44 44 44 43 43 43 44 46 47
25 26 26 26 26 26 24 23 22 22 24 25 25 25 25 27 29 30 29 28 28 28 28 30 31 32 32 31 29 27 26 28 32 35 37 37 36 38 42 49 57 59 56 51 45 44 47 46 44 44 43 40 37 35 33 29 27 30 32 31 33 36 38 40 42 43 42 42 43 43 42 43 44 44
25 26 27 27 26 25 24 24 23 23 25 25 23 24 26 28 29 30 29 28 28 27 27 28 29 29 27 25 23 24 27 29 30 33 35 35 36 40 46 51 57 59 56 51 45 41 44 44 41 39 37 36 36 34 32 27 26 29 30 29 31 34 36 38 40 40 40 40 41 42 42 42 43 42
26 27 27 27 27 25 24 24 23 24 25 25 23 25 27 28 29 29 28 27 26 26 26 25 25 23 21 20 23 26 28 28 29 31 34 34 36 42 48 51 52 55 56 52 46 45 45 42 37 33 31 31 30 29 27 26 25 26 27 28 30 32 34 35 36 37 37 38 39 41 42 42 42 41
26 27 27 27 26 24 23 24 24 25 25 25 25 25 26 27 27 26 25 25 25 25 24 21 19 18 19 21 25 27 28 28 29 31 32 32 34 40 47 49 47 50 55 54 50 47 42 35 32 29 27 27 26 21 18 20 23 24 25 27 30 32 33 34 35 35 36 37 38 39 40 41 41 41
25 25 25 25 25 24 23 24 25 24 24 24 24 24 25 25 24 23 23 23 21 20 19 17 17 19 22 25 26 27 28 28 30 32 32 31 33 37 43 46 47 49 52 49 44 38 32 28 27 25 24 25 26 22 15 12 16 21 24 26 29 31 32 33 34 35 36 37 39 39 39 40 40 40
22 22 23 24 24 23 23 23 22 22 22 22 22 23 23 22 20 19 19 19 18 17 18 19 21 23 25 27 27 27 28 29 31 33 33 31 32 36 40 43 45 47 49 45 36 27 24 24 23 21 21 21 23 24 20 14 14 17 20 24 28 30 31 33 34 35 36 38 39 39 38 38 37 37
19 21 22 23 22 21 20 20 20 20 20 20 21 21 20 18 16 15 16 17 17 18 20 22 23 25 26 27 27 27 29 31 33 34 33 31 31 35 40 43 43 42 43 41 32 22 21 22 20 17 17 18 20 22 22 18 16 17 18 21 26 29 29 30 32 35 36 38 38 38 37 36 35 36
18 20 21 20 20 19 19 18 18 18 18 18 19 19 17 15 14 14 15 17 18 20 21 23 24 25 26 26 26 28 31 33 33 33 33 31 29 34 40 43 43 41 39 38 30 20 18 19 19 20 20 20 20 21 22 21 19 19 19 20 22 26 28 29 31 34 36 37 38 38 36 36 36 37
17 19 19 18 18 18 17 16 15 16 16 17 18 17 15 14 14 15 17 18 19 21 22 24 25 25 25 25 26 29 31 32 33 33 32 30 28 33 39 43 45 43 39 36 30 19 15 17 21 23 25 24 19 15 17 21 20 18 19 20 22 24 27 29 30 33 35 36 37 37 37 36 37 38
15 16 17 18 17 16 15 14 14 15 16 17 17 16 15 15 16 18 19 19 20 22 23 24 24 24 24 26 28 30 31 31 30 30 31 30 28 32 39 44 47 47 42 37 32 22 13 17 23 25 26 27 22 14 11 14 17 16 18 21 24 24 26 30 32 32 34 36 36 36 37 37 37 37
14 16 17 17 16 14 14 14 14 16 17 17 17 16 16 16 17 18 19 20 21 21 22 22 23 24 26 28 30 31 31 29 28 28 29 29 27 30 38 43 47 49 47 41 34 24 13 14 23 26 26 27 27 21 13 9 12 15 17 20 24 24 24 28 34 35 34 34 35 37 38 38 37 36
14 15 15 14 13 13 13 13 15 16 16 17 16 15 15 15 16 17 18 18 19 20 20 22 24 27 29 30 31 31 28 26 25 26 27 27 25 28 35 41 44 47 48 45 39 29 17 12 19 24 23 22 23 21 17 11 10 14 17 18 22 25 25 26 32 37 36 35 37 38 37 37 36 36
14 14 13 12 11 11 12 13 15 15 14 13 13 13 14 15 16 16 16 17 17 19 21 24 27 29 30 30 29 28 25 24 24 24 25 25 23 25 32 38 40 43 45 44 42 36 24 14 15 19 18 17 17 18 16 13 11 14 16 16 18 22 24 24 29 34 36 37 37 37 37 37 36 36
13 12 11 10 10 11 12 14 14 13 12 11 12 13 14 15 16 16 16 17 18 21 23 26 27 28 28 27 26 26 25 24 23 23 24 24 21 21 28 36 38 39 40 41 40 38 30 19 11 12 14 14 15 16 17 16 15 14 14 16 17 19 22 21 23 28 34 37 38 36 35 35 35 36
12 11 10 10 11 11 12 13 13 12 11 11 12 13 14 15 15 16 17 19 21 23 25 25 25 24 24 24 25 25 26 25 24 23 23 23 21 20 24 32 35 37 39 39 39 37 32 24 13 5 6 6 8 10 12 13 16 17 17 19 19 19 20 21 20 22 27 33 36 36 34 34 35 36
11 11 11 11 11 11 12 12 11 11 11 13 14 15 15 15 15 17 19 21 23 24 24 23 22 21 22 23 24 25 25 24 23 23 22 23 22 20 21 26 32 36 37 37 37 35 31 27 20 8 3 4 2 2 3 1 5 11 15 19 21 20 21 22 22 21 22 24 28 32 32 33 34 35
12 12 12 12 12 11 11 11 11 12 13 14 15 16 16 16 17 19 22 23 22 21 20 19 19 20 21 22 23 24 24 23 22 22 22 23 23 21 19 22 29 34 36 36 34 33 30 28 24 18 9 3 3 4 5 4 4 4 7 13 16 19 21 21 22 23 23 22 23 26 27 29 31 32
13 13 14 13 12 11 12 12 12 14 14 14 15 15 16 17 18 21 22 21 18 17 16 16 18 19 20 22 23 24 24 23 23 22 22 24 24 20 16 18 24 29 33 34 32 32 31 28 25 23 20 16 15 15 12 7 0 3 2 7 8 10 13 15 15 17 20 23 24 26 27 28 27 27
14 14 14 12 11 11 12 12 13 14 14 14 14 14 15 17 19 20 19 16 15 14 14 15 17 19 20 21 23 24 25 24 24 24 24 24 24 21 17 16 20 25 29 31 30 31 31 30 27 24 22 20 20 21 20 17 12 6 3 6 6 6 8 10 11 13 15 19 24 26 27 27 26 23
13 13 12 11 11 11 12 13 13 13 13 14 14 15 17 18 17 16 14 13 13 14 14 16 18 18 20 21 22 23 25 25 24 25 24 23 24 24 20 16 16 20 25 29 29 30 31 31 28 26 23 20 19 20 21 20 17 12 7 2 6 10 12 13 13 13 12 14 20 24 25 24 25 24
11 10 10 10 10 11 12 13 13 13 13 14 16 16 16 15 14 13 12 12 13 14 14 16 17 18 19 21 22 23 24 25 25 25 24 23 23 23 22 20 17 16 19 25 28 29 30 29 26 25 25 24 23 24 25 24 22 19 18 14 6 3 11 16 18 17 14 10 11 15 16 17 19 22
9 8 8 9 10 12 13 13 13 13 13 15 16 15 13 12 11 11 11 12 13 14 15 16 17 18 19 20 21 22 23 24 26 26 24 25 25 23 20 21 20 14 13 19 23 25 26 27 25 25 26 28 29 30 29 28 25 23 23 22 20 14 4 8 15 18 17 12 8 8 10 12 13 15
8 8 8 9 11 13 13 13 13 13 14 14 14 12 10 10 10 10 11 12 13 14 15 16 16 17 19 19 20 21 22 23 25 26 24 24 26 24 20 21 21 16 11 13 16 19 22 24 26 27 29 29 30 30 29 28 28 27 26 25 26 25 20 10 4 9 12 13 12 10 10 10 11 12
9 9 9 11 13 13 13 13 13 13 13 13 11 9 9 9 9 10 11 12 13 14 15 15 16 17 19 19 19 20 21 22 23 24 24 23 23 24 22 21 21 21 16 11 10 14 18 21 23 26 29 30 29 29 28 28 29 29 29 29 29 29 28 22 13 5 6 8 10 11 11 11 11 12
10 10 11 12 13 12 12 13 13 12 11 9 8 8 8 9 9 10 11 12 13 14 14 15 16 17 18 19 19 20 21 21 21 22 23 22 21 22 22 20 20 22 21 14 8 9 13 16 18 21 24 26 28 29 28 28 28 29 29 30 30 31 31 30 25 18 14 12 8 3 7 10 11 14
Wind_Direction
281 280 279 279 282 285 285 286 289 292 293 294 295 298 301 300 300 306 309 308 308 311 315 316 318 325 327 324 324 325 329 331 329 327 327 327 326 323 320 317 314 311 308 307 305 299 287 275 268 263 260 258 256 255 255 254 252 250 248 246 245 246 245 243 241 241 243 244 246 246 244 242 241 242
280 280 279 280 282 286 287 287 288 290 291 292 293 295 297 297 298 301 302 302 303 305 309 311 313 318 322 321 320 321 324 329 328 327 328 328 327 326 323 321 319 317 313 308 305 303 297 285 274 267 262 258 256 255 255 254 253 252 250 246 244 245 245 243 241 239 240 242 243 244 244 244 242 241
279 282 286 286 287 289 290 289 288 288 290 290 291 291 292 294 295 298 298 298 300 304 306 307 309 313 316 317 318 318 321 325 325 325 326 328 328 327 326 326 325 323 319 314 308 303 300 293 281 272 265 260 257 255 254 254 253 253 251 249 245 244 243 242 240 239 238 239 240 242 243 244 244 242
281 287 292 292 291 292 291 290 289 289 289 289 288 288 289 290 291 293 293 293 298 303 305 306 308 311 312 313 314 316 318 320 320 321 323 325 327 327 327 328 328 328 326 321 314 306 300 295 287 277 269 263 258 255 253 253 253 252 251 250 248 244 243 242 241 239 238 237 238 239 241 243 244 243
286 290 291 290 292 294 294 294 293 292 291 288 287 286 285 285 286 287 287 289 294 301 303 305 307 310 311 311 311 314 315 315 316 317 321 324 326 327 328 329 329 329 328 325 320 311 302 296 289 282 274 267 261 256 253 252 252 252 251 250 249 246 243 242 242 241 239 237 236 237 239 241 242 243
286 286 286 289 295 298 297 298 297 297 294 289 287 285 283 284 287 289 289 287 288 294 300 303 306 309 312 311 311 313 313 312 313 315 319 323 325 326 329 330 329 329 328 326 323 316 307 299 291 284 277 270 264 258 254 251 251 251 250 249 249 248 245 242 242 242 239 237 236 235 236 238 241 242
280 281 285 291 298 298 298 300 299 298 297 293 289 287 285 287 291 292 292 288 285 290 297 302 304 308 311 310 310 312 311 310 312 315 318 322 323 325 329 330 330 330 329 327 324 319 311 303 293 285 279 273 267 260 255 252 250 250 250 249 248 248 247 243 241 241 239 236 236 235 235 236 239 241
276 280 290 297 297 294 296 300 301 300 299 296 293 290 289 291 293 293 294 294 293 294 296 299 302 305 307 307 308 309 309 309 311 314 318 320 321 324 328 330 331 330 329 327 324 320 315 306 296 287 280 275 270 263 257 252 250 249 249 248 247 247 248 245 241 240 238 235 235 236 235 235 237 240
274 283 295 301 297 293 294 298 300 300 299 297 294 291 290 290 291 292 292 294 295 294 295 298 300 301 302 303 305 307 308 309 310 313 316 318 320 324 327 329 330 329 328 326 324 320 317 310 299 289 282 276 271 266 259 253 249 248 248 247 246 246 247 246 243 239 237 235 235 236 236 236 236 238
277 287 296 300 296 290 291 293 296 297 296 295 292 290 289 288 287 289 290 290 290 290 293 295 297 300 301 302 303 306 308 308 309 312 314 316 320 323 326 327 327 327 326 325 324 321 318 314 305 292 284 278 272 267 262 255 249 247 247 245 245 245 246 246 244 240 237 235 235 235 236 236 236 237
282 289 294 297 294 288 286 288 291 292 291 291 290 289 288 287 286 287 290 290 288 288 290 292 295 299 301 301 302 307 309 305 306 310 313 314 318 321 323 324 324 324 324 323 323 321 318 315 309 298 287 279 272 268 264 258 251 247 246 245 243 243 244 245 245 241 238 236 235 235 236 236 236 236
284 288 292 295 294 290 287 287 288 289 290 289 288 288 288 287 286 287 288 288 287 287 288 290 294 297 299 301 303 306 306 301 303 309 310 311 315 318 319 320 321 321 321 321 322 320 317 313 309 302 294 283 275 270 266 260 253 247 245 245 243 242 243 243 244 242 239 236 236 236 236 236 235 234
288 291 293 294 294 292 291 290 289 290 292 290 287 287 288 288 288 288 289 288 287 285 285 288 293 296 298 301 304 305 303 300 302 307 308 309 312 314 315 316 318 319 320 320 318 316 314 310 305 302 296 288 281 276 268 261 254 247 244 243 243 242 241 241 242 242 240 237 235 236 235 234 233 233
290 293 293 294 294 294 295 295 293 292 293 291 288 286 286 288 288 289 290 290 288 284 283 287 292 296 297 301 305 305 301 298 299 303 306 307 309 312 312 313 315 317 318 318 315 313 312 307 301 298 295 290 286 280 271 262 254 247 243 242 242 241 241 240 241 241 240 237 235 234 233 231 231 231
288 288 290 292 294 296 298 296 292 290 292 292 289 287 286 286 286 288 290 291 288 283 281 285 291 294 297 302 305 304 300 297 299 302 303 304 307 310 311 311 313 316 318 317 313 311 311 307 298 295 292 289 286 280 271 263 254 246 241 240 240 240 240 239 240 241 240 238 235 233 230 229 229 230
285 284 286 289 294 297 299 297 290 288 290 292 291 290 288 287 286 287 289 289 287 283 282 284 288 292 298 301 302 301 300 299 299 300 301 302 304 307 309 310 312 315 318 316 311 309 310 307 299 293 290 288 286 281 272 262 253 245 240 238 239 238 238 238 239 240 240 240 237 233 230 228 229 231
284 285 286 288 293 297 299 297 290 287 288 291 293 293 290 289 288 287 287 288 286 283 279 280 285 293 297 298 299 301 301 299 298 297 298 300 301 304 308 310 312 315 318 315 309 307 307 306 300 294 289 285 284 281 273 261 250 244 240 237 237 237 237 237 237 239 240 240 238 234 231 230 230 232
286 289 288 289 294 297 298 297 290 284 285 290 294 296 294 293 291 288 286 284 281 279 278 282 288 294 294 294 297 299 299 298 298 298 299 302 303 305 309 312 313 317 319 314 306 303 303 302 298 293 288 284 281 278 273 260 246 242 238 235 236 236 235 235 236 237 238 239 239 236 232 232 232 233
289 291 290 292 296 296 296 295 287 281 285 290 293 295 294 293 292 288 285 282 281 283 285 288 291 293 293 293 295 296 297 298 302 305 306 306 307 310 314 314 315 318 319 315 304 297 298 299 293 289 287 283 279 276 272 260 244 239 236 232 233 234 233 233 234 235 236 237 238 236 233 232 232 233
291 291 292 295 297 296 293 290 285 283 288 291 292 292 291 291 290 288 285 283 283 283 283 285 289 290 291 294 296 299 305 310 314 313 310 309 313 317 315 314 316 319 320 317 306 295 295 296 290 286 285 280 275 272 269 259 243 236 234 231 230 231 231 230 231 233 234 235 235 234 232 231 231 232
291 292 294 296 297 295 292 291 288 289 291 291 290 290 289 289 288 288 287 285 283 281 280 282 285 287 290 294 298 306 314 318 318 313 309 313 320 321 317 316 319 319 319 318 311 298 294 296 290 284 281 277 272 270 266 255 238 232 232 230 229 229 227 226 228 230 233 234 233 232 231 230 230 231
292 293 295 296 296 295 294 293 293 293 291 288 287 288 289 289 290 290 291 290 288 285 283 283 285 287 292 298 305 312 316 317 316 312 314 321 324 321 320 320 320 319 317 317 314 302 295 295 290 282 278 274 270 267 262 249 232 227 228 228 228 227 224 223 225 228 231 232 231 230 229 229 229 230
290 292 293 294 295 294 294 294 294 294 292 289 289 290 290 291 293 295 295 295 295 292 290 290 290 293 298 306 312 315 316 316 316 316 319 323 323 322 323 323 320 316 313 315 315 305 296 292 287 279 272 268 268 268 258 241 226 222 224 226 227 223 219 219 222 226 228 228 226 226 227 228 228 228
289 290 292 293 292 292 294 294 294 294 293 292 292 291 292 294 297 299 299 298 297 296 296 297 299 304 310 315 316 316 316 318 322 322 323 323 324 325 325 325 322 313 311 317 319 311 298 287 280 276 267 259 261 265 253 231 222 221 222 224 223 219 215 216 218 220 221 221 220 222 224 226 227 227
287 289 291 290 289 290 292 293 294 295 294 294 294 294 297 301 303 303 302 302 302 303 305 310 316 319 319 318 317 316 319 325 328 328 327 325 327 328 327 329 327 317 315 322 323 311 297 283 274 271 263 255 253 253 242 216 212 221 224 223 219 214 212 213 214 215 215 215 214 216 219 222 224 225
287 289 289 286 286 289 293 295 297 298 299 299 299 300 304 306 308 309 310 312 315 316 318 321 323 323 320 318 319 321 324 329 331 331 330 327 328 331 332 334 332 323 321 327 326 308 290 280 271 262 256 253 251 248 241 225 213 217 220 220 216 212 210 212 213 213 213 213 212 212 215 218 220 221
289 289 288 287 290 295 299 302 304 305 305 305 304 307 310 311 311 315 317 318 317 317 319 320 319 320 320 320 323 326 329 331 331 332 332 329 330 335 336 339 340 333 329 332 329 307 286 280 271 258 252 250 247 243 240 235 226 220 219 217 214 211 210 210 212 212 212 212 210 210 212 213 214 214
289 289 290 292 297 304 307 308 309 309 309 309 309 313 316 314 313 315 316 315 317 319 320 319 319 323 325 326 329 331 332 333 332 333 333 332 334 338 338 342 347 345 340 341 338 314 286 279 268 256 255 256 253 245 239 237 234 227 224 221 214 211 211 211 212 212 211 210 209 208 209 208 207 207
288 289 293 298 303 308 310 310 311 310 310 313 315 318 321 318 318 319 317 316 319 321 322 322 323 326 327 329 333 334 334 333 333 334 334 333 336 339 340 344 351 352 350 350 347 328 289 269 262 260 260 260 261 256 242 239 239 233 226 225 221 215 212 211 212 211 209 208 207 207 208 208 207 207
289 291 298 304 307 310 311 309 309 311 314 317 320 321 322 320 320 320 320 320 321 322 322 323 325 327 330 333 336 335 334 334 334 334 334 334 336 338 341 347 354 357 357 357 354 343 304 261 254 257 258 255 253 256 251 242 240 236 228 225 225 223 218 213 212 210 208 206 205 205 206 207 208 211
290 294 299 305 308 309 309 309 312 315 317 318 318 318 319 319 318 318 319 322 323 323 324 326 329 333 337 338 337 336 334 334 334 334 335 335 334 337 344 352 357 358 359 0 358 350 324 269 254 254 258 256 252 257 271 260 235 232 233 229 229 233 231 220 212 208 206 205 203 203 204 205 206 210
292 295 298 302 304 305 307 311 313 315 317 317 318 318 318 319 320 320 321 323 324 327 330 334 337 340 340 339 337 336 335 336 335 335 338 338 336 339 347 355 0 360 360 1 0 353 334 291 267 264 268 269 266 271 283 278 237 227 235 237 233 233 235 228 215 206 202 202 202 202 202 204 205 208
290 291 294 297 299 302 307 310 311 314 317 320 322 323 323 323 323 324 324 326 329 334 338 340 342 342 340 339 337 337 337 339 337 336 340 342 340 342 350 357 1 2 0 1 1 357 346 318 284 275 276 276 275 281 288 281 253 234 232 233 230 228 230 231 222 209 200 198 200 201 201 203 206 210
286 288 292 295 297 302 308 313 315 318 321 324 325 325 325 325 324 326 329 332 337 340 342 342 342 341 339 338 339 340 340 341 340 338 342 346 342 343 354 359 1 3 3 2 3 1 355 343 311 280 278 279 279 286 292 283 268 253 235 224 224 226 224 220 217 211 203 198 198 201 201 203 208 211
285 289 292 293 299 307 314 319 323 324 326 328 327 326 327 328 327 328 331 335 338 339 340 340 340 340 340 340 341 342 341 341 342 341 344 348 345 344 355 1 2 4 6 6 6 6 2 357 348 294 259 281 294 296 296 281 265 256 241 228 225 224 216 205 202 205 204 199 197 199 202 205 208 210
286 292 295 297 305 314 322 326 326 327 328 327 324 324 327 331 332 332 334 336 337 336 337 339 340 343 345 344 344 344 343 342 343 343 345 348 347 343 351 3 6 7 9 9 9 10 10 8 7 1 241 225 249 308 354 344 234 234 221 212 213 211 206 204 205 205 204 201 197 198 203 207 210 211
290 294 298 302 309 320 327 328 325 324 325 323 322 323 328 332 334 335 334 334 335 337 339 343 347 349 350 349 348 350 350 349 348 347 346 348 347 341 347 3 9 10 12 14 14 14 15 16 18 18 15 30 91 75 68 109 180 199 168 171 185 189 187 193 202 204 206 209 208 206 210 213 215 216
289 292 297 303 312 323 327 326 325 325 324 323 323 325 329 331 331 330 330 332 336 341 346 351 355 356 354 353 353 355 357 357 355 353 350 349 349 345 345 359 8 11 14 19 21 21 22 23 26 30 33 42 58 62 59 64 144 265 188 154 163 174 178 185 194 202 212 218 218 217 218 219 218 219
285 287 294 303 313 321 323 323 326 327 326 327 327 325 327 329 328 327 331 336 344 350 355 360 3 1 357 357 357 358 2 3 1 358 355 352 352 352 351 354 2 10 16 22 26 28 30 31 32 36 38 42 50 55 56 56 49 18 279 216 199 197 202 208 209 211 218 221 220 219 220 220 219 220
284 284 291 301 310 317 319 322 326 330 331 332 331 327 327 328 329 332 340 348 353 359 3 6 7 4 360 359 359 360 4 7 6 2 358 355 353 353 353 358 3 8 17 25 30 30 33 36 37 38 42 47 52 57 58 57 52 40 20 301 237 231 232 233 230 227 225 216 208 209 212 213 212 211
280 280 289 299 308 314 317 319 323 329 332 332 330 329 330 333 336 343 351 357 1 5 8 8 8 7 3 1 0 1 3 8 9 7 2 359 356 352 353 2 8 8 16 27 33 34 35 37 40 42 45 49 54 56 56 54 52 50 51 53 53 243 239 238 237 237 236 220 196 191 196 201 201 200
276 279 288 299 306 310 312 315 319 324 327 328 329 331 336 342 347 353 0 4 7 8 8 6 7 8 7 4 2 2 4 7 10 10 5 2 0 357 357 5 9 9 19 29 33 38 40 39 38 39 42 45 49 53 53 52 50 49 53 59 65 70 93 232 240 239 236 232 218 194 187 189 191 191
279 281 288 299 305 306 306 309 313 317 320 324 328 336 345 350 354 358 3 8 10 9 7 6 7 9 10 8 5 4 6 9 10 11 8 5 4 3 6 10 9 7 16 30 33 42 48 45 39 38 39 42 47 50 51 52 52 50 50 53 60 67 76 92 181 228 228 225 223 216 204 200 203 203
277 282 291 299 303 302 301 303 306 309 314 322 330 340 347 351 356 359 1 7 10 9 6 6 7 9 11 9 7 7 9 11 12 11 9 7 6 6 8 12 10 8 12 23 33 44 51 51 46 42 41 43 47 49 50 51 52 51 50 50 53 57 66 78 93 136 195 203 209 214 213 211 216 220
273 282 292 298 299 297 297 299 301 304 313 324 335 342 346 349 353 356 359 3 6 6 6 5 6 10 12 10 8 8 10 11 13 13 12 11 10 8 8 11 12 11 11 13 24 42 46 46 46 47 46 46 47 48 48 50 51 50 48 49 50 52 58 67 76 85 91 91 90 143 209 215 222 229
Height
1557 1556 1556 1555 1555 1555 1555 1554 1554 1553 1553 1552 1551 1550 1549 1548 1546 1544 1542 1540 1539 1538 1538 1536 1534 1534 1534 1533 1533 1532 1531 1530 1528 1527 1525 1524 1522 1521 1519 1518 1516 1515 1513 1511 1510 1509 1508 1507 1507 1507 1507 1508 1509 1510 1510 1511 1511 1512 1513 1515 1517 1518 1520 1521 1523 1525 1527 1529 1531 1533 1535 1537 1538 1540
1556 1555 1554 1554 1553 1553 1553 1552 1552 1551 1551 1550 1549 1549 1548 1546 1545 1543 1540 1537 1535 1536 1536 1535 1533 1531 1530 1530 1529 1529 1528 1526 1525 1523 1522 1520 1518 1517 1515 1514 1512 1511 1509 1507 1506 1504 1503 1502 1501 1501 1502 1502 1503 1504 1505 1505 1506 1507 1508 1509 1511 1513 1514 1516 1518 1520 1522 1524 1526 1528 1531 1533 1534 1536
1554 1553 1552 1552 1551 1551 1550 1550 1549 1549 1548 1547 1547 1546 1545 1544 1542 1541 1539 1535 1532 1532 1532 1532 1532 1530 1528 1527 1525 1525 1524 1523 1522 1520 1518 1517 1515 1513 1511 1510 1509 1507 1505 1503 1501 1500 1498 1497 1496 1496 1496 1496 1497 1498 1499 1499 1500 1502 1502 1504 1505 1507 1509 1511 1513 1515 1517 1519 1521 1523 1526 1528 1530 1532
1552 1552 1551 1550 1549 1548 1548 1547 1546 1545 1545 1544 1544 1543 1542 1541 1540 1539 1538 1534 1529 1528 1529 1529 1529 1528 1526 1524 1522 1521 1520 1519 1518 1517 1515 1513 1511 1509 1507 1506 1504 1503 1501 1499 1497 1495 1493 1492 1491 1490 1490 1490 1490 1491 1492 1493 1494 1496 1497 1498 1499 1501 1503 1505 1508 1510 1512 1514 1516 1518 1521 1523 1526 1528
1551 1550 1549 1548 1547 1546 1545 1544 1543 1542 1542 1541 1540 1540 1539 1538 1537 1537 1535 1532 1528 1526 1526 1525 1525 1525 1523 1521 1520 1518 1516 1515 1514 1513 1512 1510 1508 1506 1504 1502 1500 1498 1496 1494 1492 1490 1489 1487 1486 1485 1484 1484 1484 1485 1485 1487 1488 1489 1491 1492 1494 1495 1497 1499 1502 1504 1507 1509 1511 1513 1516 1518 1521 1523
1549 1548 1547 1546 1546 1545 1543 1542 1541 1540 1539 1538 1537 1537 1536 1535 1535 1534 1532 1530 1528 1525 1523 1522 1521 1521 1520 1518 1516 1515 1513 1511 1510 1509 1508 1506 1504 1502 1500 1497 1495 1493 1491 1489 1487 1485 1483 1482 1481 1479 1479 1478 1478 1478 1479 1480 1481 1482 1484 1486 1488 1490 1491 1494 1496 1499 1501 1504 1506 1508 1510 1513 1515 1518
1547 1546 1546 1545 1544 1543 1541 1540 1539 1538 1537 1536 1534 1533 1533 1532 1531 1531 1529 1528 1526 1524 1521 1520 1518 1517 1517 1515 1513 1512 1510 1508 1507 1505 1504 1502 1500 1498 1496 1493 1490 1488 1486 1484 1482 1480 1478 1476 1475 1474 1473 1472 1472 1472 1472 1473 1474 1476 1477 1479 1481 1484 1486 1488 1490 1493 1495 1498 1500 1503 1505 1507 1510 1513
1545 1545 1544 1543 1542 1541 1539 1538 1537 1536 1535 1533 1532 1531 1530 1529 1528 1528 1526 1525 1524 1522 1519 1517 1516 1514 1513 1511 1510 1509 1506 1505 1503 1501 1500 1498 1496 1494 1492 1489 1486 1483 1481 1479 1477 1474 1472 1470 1469 1468 1467 1466 1466 1465 1465 1466 1467 1469 1470 1472 1475 1477 1479 1482 1484 1487 1490 1492 1495 1498 1500 1502 1505 1508
1544 1543 1542 1541 1540 1539 1537 1536 1534 1533 1532 1531 1530 1529 1528 1527 1526 1525 1524 1522 1521 1519 1517 1515 1514 1512 1510 1508 1507 1506 1504 1501 1499 1498 1496 1495 1492 1490 1487 1485 1482 1479 1476 1474 1471 1469 1466 1465 1463 1461 1460 1459 1459 1459 1459 1459 1460 1462 1463 1466 1468 1470 1473 1475 1478 1481 1484 1487 1490 1492 1495 1497 1500 1502
1541 1541 1540 1539 1538 1537 1535 1533 1532 1531 1530 1529 1527 1526 1525 1525 1523 1522 1521 1520 1518 1516 1515 1513 1511 1509 1508 1505 1504 1503 1501 1498 1495 1493 1492 1490 1489 1486 1482 1480 1478 1475 1472 1468 1466 1463 1460 1458 1457 1455 1454 1453 1452 1453 1453 1453 1454 1455 1457 1459 1461 1464 1466 1469 1472 1475 1478 1481 1484 1487 1490 1492 1495 1497
1539 1538 1537 1536 1535 1534 1532 1531 1529 1528 1527 1526 1525 1524 1523 1522 1521 1519 1518 1517 1515 1513 1512 1511 1509 1507 1505 1503 1500 1500 1499 1496 1493 1491 1487 1485 1484 1482 1479 1476 1472 1470 1467 1463 1461 1459 1455 1452 1450 1449 1448 1446 1445 1445 1446 1446 1447 1449 1450 1452 1455 1457 1460 1463 1466 1469 1472 1475 1478 1481 1484 1487 1490 1492
1536 1535 1534 1534 1532 1531 1530 1528 1527 1525 1524 1523 1522 1521 1521 1520 1518 1516 1515 1514 1512 1511 1509 1508 1506 1504 1502 1500 1497 1496 1495 1492 1490 1489 1486 1481 1479 1477 1475 1473 1469 1466 1462 1458 1454 1452 1450 1447 1444 1443 1441 1440 1439 1439 1439 1440 1440 1442 1444 1446 1448 1451 1453 1456 1459 1462 1466 1469 1472 1475 1479 1482 1484 1487
1533 1532 1531 1531 1529 1528 1527 1526 1524 1523 1522 1520 1519 1519 1518 1517 1515 1513 1512 1511 1510 1508 1507 1505 1504 1502 1499 1497 1495 1493 1491 1489 1487 1486 1484 1479 1476 1473 1470 1468 1467 1463 1458 1453 1448 1445 1445 1442 1438 1436 1434 1433 1433 1432 1431 1432 1433 1435 1437 1440 1442 1445 1447 1450 1453 1456 1459 1463 1466 1470 1473 1476 1479 1482
1530 1529 1529 1528 1527 1525 1524 1523 1522 1520 1519 1517 1516 1516 1515 1514 1512 1510 1509 1508 1507 1506 1504 1502 1501 1499 1495 1494 1492 1489 1487 1486 1484 1482 1480 1476 1472 1470 1464 1459 1461 1461 1456 1449 1441 1437 1438 1437 1432 1429 1427 1426 1426 1426 1424 1425 1426 1428 1431 1433 1436 1438 1441 1444 1447 1450 1454 1457 1460 1464 1467 1471 1474 1477
1527 1527 1526 1525 1524 1522 1521 1520 1518 1517 1516 1515 1514 1513 1512 1511 1510 1508 1506 1505 1504 1503 1501 1499 1498 1496 1493 1491 1489 1487 1485 1483 1481 1479 1476 1473 1469 1466 1461 1453 1451 1454 1453 1445 1434 1428 1430 1431 1426 1422 1420 1419 1419 1419 1417 1418 1420 1421 1424 1427 1429 1432 1435 1438 1441 1444 1448 1451 1455 1459 1462 1466 1469 1472
1525 1524 1523 1522 1521 1519 1518 1517 1515 1514 1513 1512 1511 1510 1510 1509 1507 1505 1504 1502 1501 1500 1498 1496 1495 1493 1490 1488 1486 1485 1482 1480 1478 1475 1473 1471 1467 1463 1459 1451 1445 1446 1448 1442 1429 1419 1420 1423 1419 1414 1412 1412 1411 1411 1411 1411 1413 1415 1417 1420 1423 1426 1429 1432 1435 1438 1442 1446 1449 1453 1457 1460 1464 1467
1521 1520 1520 1518 1517 1516 1515 1514 1512 1511 1510 1509 1508 1508 1507 1506 1504 1503 1501 1500 1499 1497 1496 1494 1492 1491 1488 1485 1483 1482 1480 1477 1474 1472 1469 1467 1464 1459 1456 1450 1442 1440 1442 1438 1425 1412 1410 1415 1412 1406 1404 1405 1405 1404 1404 1405 1407 1408 1411 1414 1417 1420 1423 1426 1429 1433 1436 1440 1443 1447 1451 1455 1458 1462
1518 1517 1516 1514 1514 1513 1512 1511 1509 1508 1507 1506 1505 1505 1504 1503 1501 1500 1499 1497 1496 1495 1493 1491 1489 1487 1485 1483 1480 1479 1477 1475 1471 1468 1465 1462 1459 1455 1450 1445 1439 1436 1436 1434 1424 1408 1402 1408 1407 1398 1396 1398 1398 1397 1398 1399 1401 1402 1404 1408 1410 1414 1417 1420 1423 1427 1430 1434 1438 1441 1445 1449 1453 1457
1515 1514 1513 1511 1510 1510 1509 1508 1507 1505 1504 1503 1502 1501 1501 1500 1498 1497 1495 1494 1493 1491 1490 1488 1485 1484 1481 1480 1478 1476 1475 1472 1469 1465 1461 1458 1454 1449 1444 1439 1433 1430 1430 1429 1422 1406 1397 1402 1401 1391 1389 1392 1391 1390 1391 1392 1394 1396 1398 1401 1405 1408 1411 1414 1418 1421 1425 1429 1432 1436 1440 1443 1448 1452
1513 1511 1510 1508 1508 1507 1506 1506 1504 1502 1501 1500 1499 1498 1497 1496 1495 1493 1492 1491 1489 1488 1487 1484 1482 1480 1478 1476 1475 1473 1471 1468 1465 1461 1457 1454 1450 1445 1439 1433 1427 1424 1422 1421 1417 1404 1393 1395 1394 1386 1384 1386 1385 1384 1385 1386 1388 1391 1393 1396 1399 1402 1406 1409 1412 1416 1419 1423 1427 1430 1434 1438 1442 1447
1510 1509 1507 1506 1505 1504 1503 1502 1501 1500 1498 1497 1496 1495 1494 1493 1491 1489 1488 1487 1486 1485 1483 1481 1479 1477 1475 1473 1472 1470 1468 1465 1462 1458 1453 1450 1447 1441 1435 1428 1420 1416 1413 1411 1409 1400 1390 1388 1386 1381 1379 1380 1379 1378 1379 1380 1382 1385 1388 1391 1394 1397 1400 1404 1407 1410 1414 1417 1421 1425 1429 1433 1438 1442
1507 1506 1505 1503 1502 1502 1501 1500 1498 1497 1495 1494 1493 1492 1491 1489 1487 1486 1484 1483 1481 1480 1479 1477 1475 1473 1472 1470 1468 1466 1464 1462 1460 1456 1450 1447 1443 1438 1431 1425 1415 1406 1403 1403 1401 1394 1385 1382 1380 1377 1376 1374 1373 1372 1373 1374 1377 1380 1384 1387 1390 1392 1395 1399 1402 1405 1409 1412 1416 1420 1424 1429 1433 1437
1504 1503 1502 1501 1499 1499 1498 1497 1495 1494 1492 1491 1490 1489 1487 1486 1484 1482 1480 1479 1477 1475 1474 1472 1471 1470 1469 1467 1465 1463 1461 1459 1457 1453 1448 1444 1440 1434 1428 1422 1414 1401 1392 1394 1395 1388 1379 1376 1375 1374 1374 1371 1368 1368 1369 1370 1372 1376 1380 1383 1385 1388 1391 1394 1397 1401 1404 1407 1411 1415 1419 1423 1427 1431
1502 1501 1499 1498 1497 1496 1495 1494 1492 1491 1489 1488 1487 1486 1484 1483 1481 1479 1477 1475 1473 1471 1470 1469 1468 1467 1465 1464 1462 1460 1458 1456 1453 1449 1446 1442 1438 1432 1425 1418 1413 1402 1389 1386 1388 1382 1375 1372 1370 1370 1371 1369 1366 1366 1366 1367 1370 1373 1376 1379 1381 1384 1387 1390 1393 1396 1399 1403 1406 1410 1414 1418 1421 1425
1498 1498 1497 1495 1494 1494 1493 1491 1489 1487 1487 1486 1485 1483 1482 1480 1478 1476 1474 1472 1470 1468 1467 1466 1465 1464 1462 1461 1459 1456 1454 1451 1448 1445 1442 1438 1435 1430 1423 1415 1408 1399 1388 1382 1381 1377 1371 1369 1368 1367 1367 1367 1366 1364 1363 1365 1368 1370 1373 1375 1377 1380 1383 1386 1389 1392 1395 1398 1401 1405 1409 1413 1416 1420
1495 1494 1494 1493 1492 1491 1490 1488 1486 1484 1484 1483 1482 1480 1479 1477 1475 1474 1472 1470 1468 1466 1465 1463 1462 1461 1460 1457 1455 1453 1450 1447 1444 1440 1437 1435 1431 1427 1422 1415 1406 1396 1386 1379 1376 1373 1369 1367 1366 1366 1365 1365 1364 1363 1362 1364 1366 1367 1369 1371 1374 1377 1379 1382 1385 1388 1390 1393 1397 1400 1405 1409 1412 1416
1492 1491 1491 1490 1489 1488 1486 1484 1483 1482 1481 1480 1479 1477 1476 1474 1473 1472 1470 1468 1466 1465 1463 1462 1460 1459 1457 1455 1452 1449 1446 1443 1440 1436 1432 1430 1427 1422 1417 1412 1405 1396 1387 1378 1373 1369 1367 1365 1364 1363 1363 1363 1363 1362 1362 1362 1363 1364 1366 1368 1370 1373 1376 1379 1381 1384 1387 1390 1393 1397 1401 1405 1408 1412
1489 1489 1488 1488 1487 1485 1483 1482 1480 1479 1478 1477 1476 1474 1473 1472 1471 1470 1468 1467 1464 1463 1461 1459 1458 1456 1454 1452 1449 1446 1443 1439 1436 1432 1428 1426 1422 1418 1413 1407 1401 1393 1384 1376 1370 1366 1364 1362 1361 1361 1361 1361 1361 1361 1360 1361 1361 1362 1364 1366 1367 1370 1373 1375 1378 1380 1383 1386 1389 1393 1396 1400 1404 1408
1486 1486 1486 1485 1484 1482 1481 1479 1478 1477 1476 1475 1474 1472 1471 1470 1469 1468 1466 1464 1462 1460 1459 1457 1455 1454 1452 1450 1446 1443 1440 1436 1432 1428 1424 1422 1418 1414 1409 1403 1396 1389 1382 1374 1368 1364 1361 1360 1359 1358 1358 1359 1359 1358 1358 1358 1359 1360 1362 1363 1365 1367 1369 1372 1374 1377 1379 1382 1386 1389 1393 1397 1400 1403
1484 1484 1484 1482 1481 1479 1478 1477 1476 1475 1474 1472 1471 1470 1469 1468 1467 1466 1464 1462 1460 1458 1456 1455 1453 1451 1449 1447 1444 1440 1437 1433 1430 1425 1421 1417 1414 1411 1405 1397 1390 1384 1378 1372 1366 1362 1359 1358 1357 1356 1355 1356 1356 1356 1357 1357 1357 1358 1359 1361 1363 1364 1366 1368 1371 1373 1376 1379 1382 1386 1390 1393 1397 1401
1482 1482 1481 1480 1478 1477 1476 1475 1474 1473 1471 1470 1469 1468 1467 1466 1465 1464 1462 1460 1458 1456 1455 1453 1451 1449 1446 1443 1440 1437 1434 1430 1427 1423 1419 1415 1411 1408 1403 1395 1387 1380 1374 1369 1365 1361 1358 1356 1355 1354 1353 1353 1354 1355 1355 1354 1354 1355 1356 1358 1360 1362 1364 1366 1368 1370 1373 1376 1379 1382 1386 1390 1394 1397
1479 1479 1478 1477 1476 1475 1474 1473 1472 1471 1470 1468 1467 1466 1465 1464 1463 1462 1460 1459 1457 1455 1453 1451 1448 1446 1444 1441 1438 1434 1431 1428 1425 1421 1417 1413 1410 1406 1401 1394 1387 1380 1373 1367 1362 1359 1356 1354 1353 1353 1353 1352 1352 1352 1351 1351 1351 1352 1354 1356 1357 1359 1362 1363 1365 1366 1369 1373 1376 1379 1383 1386 1390 1393
1477 1476 1476 1475 1474 1473 1472 1471 1471 1470 1468 1467 1466 1464 1463 1461 1460 1459 1458 1457 1455 1454 1451 1449 1446 1444 1441 1438 1435 1432 1429 1426 1423 1419 1415 1412 1409 1405 1401 1396 1389 1382 1375 1369 1363 1359 1356 1353 1352 1351 1351 1352 1351 1350 1349 1349 1350 1351 1352 1353 1355 1357 1359 1361 1362 1363 1366 1369 1372 1376 1380 1383 1386 1390
1474 1474 1474 1473 1472 1472 1471 1470 1469 1468 1466 1465 1464 1462 1461 1459 1458 1457 1457 1455 1454 1452 1449 1447 1445 1442 1439 1436 1433 1430 1427 1424 1420 1417 1414 1411 1408 1405 1401 1396 1391 1385 1379 1373 1367 1361 1357 1353 1351 1350 1350 1350 1349 1349 1348 1349 1349 1350 1352 1353 1354 1355 1357 1358 1360 1361 1363 1366 1369 1373 1377 1380 1384 1387
1472 1472 1472 1471 1470 1470 1469 1468 1467 1466 1464 1463 1462 1461 1459 1457 1456 1455 1455 1453 1452 1450 1448 1446 1443 1441 1438 1435 1432 1429 1425 1422 1419 1416 1413 1410 1407 1405 1401 1397 1392 1386 1381 1375 1369 1364 1359 1355 1352 1350 1349 1349 1349 1348 1348 1347 1348 1349 1350 1351 1352 1354 1356 1358 1359 1360 1362 1364 1367 1371 1375 1378 1381 1384
1470 1470 1470 1469 1469 1468 1468 1467 1466 1464 1463 1462 1460 1459 1457 1456 1454 1454 1453 1451 1450 1448 1446 1444 1442 1439 1437 1434 1431 1428 1424 1421 1418 1415 1412 1409 1407 1404 1402 1398 1393 1388 1383 1377 1372 1367 1362 1358 1354 1351 1350 1350 1349 1349 1348 1347 1348 1349 1349 1349 1350 1352 1355 1357 1359 1360 1362 1364 1366 1369 1373 1376 1379 1381
1468 1468 1468 1468 1467 1467 1466 1465 1464 1463 1461 1460 1459 1457 1455 1454 1453 1452 1451 1450 1449 1447 1445 1443 1440 1438 1436 1433 1430 1427 1424 1420 1417 1414 1411 1409 1406 1403 1401 1399 1395 1390 1385 1380 1375 1370 1365 1361 1356 1353 1351 1350 1349 1349 1349 1349 1350 1350 1348 1346 1348 1350 1352 1355 1358 1359 1361 1364 1366 1368 1371 1374 1377 1379
1466 1466 1466 1466 1466 1465 1465 1464 1463 1461 1459 1458 1457 1455 1454 1452 1451 1451 1450 1449 1447 1446 1444 1442 1440 1437 1435 1432 1429 1426 1423 1420 1417 1414 1411 1409 1406 1403 1401 1399 1396 1392 1388 1383 1379 1374 1369 1365 1360 1357 1355 1353 1351 1350 1350 1349 1350 1350 1348 1347 1348 1350 1352 1354 1356 1357 1359 1362 1364 1367 1370 1372 1375 1377
1465 1465 1465 1465 1464 1464 1463 1462 1461 1459 1458 1457 1455 1454 1452 1451 1450 1449 1448 1447 1446 1444 1443 1441 1439 1437 1434 1432 1429 1426 1423 1420 1417 1414 1411 1409 1407 1404 1402 1399 1396 1393 1390 1386 1382 1378 1373 1368 1364 1361 1359 1358 1355 1353 1352 1351 1351 1351 1350 1349 1350 1351 1352 1354 1355 1356 1357 1359 1361 1364 1367 1369 1373 1375
1463 1463 1463 1463 1463 1462 1462 1461 1459 1458 1456 1455 1454 1453 1451 1450 1449 1448 1447 1446 1445 1444 1442 1440 1438 1436 1434 1432 1429 1426 1423 1421 1418 1414 1412 1409 1407 1405 1402 1400 1397 1395 1392 1388 1384 1381 1376 1372 1369 1366 1364 1362 1360 1357 1354 1353 1352 1351 1351 1350 1350 1351 1352 1353 1354 1355 1356 1357 1358 1361 1364 1366 1369 1372
1461 1462 1462 1462 1462 1461 1460 1459 1458 1456 1455 1454 1453 1451 1450 1449 1448 1447 1447 1446 1444 1443 1441 1440 1438 1436 1434 1431 1429 1426 1424 1421 1418 1415 1412 1410 1408 1405 1403 1400 1398 1396 1394 1390 1387 1384 1380 1377 1375 1372 1369 1366 1362 1359 1356 1355 1355 1354 1354 1352 1351 1351 1351 1352 1352 1353 1355 1355 1356 1358 1362 1364 1366 1368
1460 1461 1461 1461 1460 1460 1459 1458 1456 1455 1454 1453 1452 1450 1449 1448 1447 1447 1446 1445 1444 1442 1441 1439 1438 1436 1434 1431 1429 1426 1424 1421 1419 1416 1413 1411 1409 1406 1404 1401 1399 1398 1395 1393 1390 1388 1386 1383 1381 1377 1373 1369 1365 1362 1360 1360 1360 1359 1358 1356 1353 1352 1351 1351 1351 1351 1352 1353 1354 1357 1360 1362 1364 1366
1459 1459 1459 1459 1459 1458 1457 1456 1455 1454 1453 1452 1451 1449 1448 1448 1447 1447 1446 1445 1444 1442 1441 1439 1437 1436 1434 1431 1429 1427 1424 1422 1419 1417 1415 1412 1410 1408 1405 1403 1401 1399 1397 1395 1394 1392 1390 1387 1384 1381 1377 1373 1370 1368 1367 1366 1365 1363 1361 1359 1356 1354 1353 1352 1350 1350 1351 1352 1354 1356 1359 1361 1362 1364
1458 1458 1458 1457 1457 1456 1455 1454 1454 1453 1452 1451 1450 1449 1448 1447 1447 1446 1446 1444 1443 1442 1441 1439 1437 1436 1434 1431 1429 1427 1425 1422 1420 1418 1416 1414 1412 1409 1407 1404 1402 1400 1398 1397 1396 1394 1392 1389 1387 1384 1380 1378 1375 1374 1372 1370 1368 1366 1364 1362 1360 1357 1355 1353 1351 1350 1350 1352 1354 1356 1358 1360 1362 1364
1456 1456 1456 1456 1455 1454 1454 1453 1452 1451 1451 1450 1449 1448 1448 1447 1447 1446 1445 1444 1443 1442 1440 1439 1437 1436 1434 1432 1429 1427 1425 1423 1421 1419 1417 1415 1413 1411 1409 1406 1404 1402 1400 1398 1396 1394 1393 1391 1389 1386 1384 1382 1380 1378 1376 1374 1372 1370 1367 1365 1363 1361 1358 1356 1353 1352 1352 1353 1355 1356 1357 1359 1361 1363